THORAD AGENA D DEB, 4935

Orbit data source: Space-Track

THORAD AGENA D DEB, 4935 is space debris in SSO originally from a launch on Wed, 08 Apr 1970 UTC launched from the Air Force Western Test Range (AFWTR). Debris objects in space refer to the collection of defunct objects orbiting the Earth. Examples of debris include non-operational satellites, rocket bodies, and fragments generated from explosions, collisions, or faulty payload assembly.

Loading next visibility...
Identifier
4935, 1970-025GB
Orbit
SSO
Country
Flag of USUS
Related business
Manufacturer
Unknown
Mission
Spacecraft
Bus & Motor
Unknown
Mass
Unknown
Launch date (UTC)
1970-04-08 (56 years ago)
Launch vehicle
Unknown
Launch site
Air Force Western Test Range (AFWTR)
Object type
Payload
Rocket body
Debris
Shape & HBR
Unknown shape, 0.1 m
Radar Cross Section
Small (<0.1 m²)

Expand to show TLE details & history
Last TLE update: 17 hours ago

TLE from 17 hours ago
0 THORAD AGENA D DEB
1 04935U 70025GB  25292.28729700  .00001310  00000-0  11461-2 0  9990
2 04935  99.8397  42.5519 0062751 282.1605 133.7139 13.86846024783646
Epoch: 2025-10-19T06:53Z
TLE epoch observation values (Epoch: 2025-10-19T06:53:42.460Z)
Latitude
55.24249°
Longitude
-103.27883°
Altitude
980.669 km
Speed
7.351 km/s
True Right ascension
01h 52m 37s
True Declination
55° 05' 10"
Sunlit
Object was in full shadow at epoch
Visualization orbit readout
Latitude
Unknown
Longitude
Unknown
Altitude
Unknown
Speed
Unknown
Apparent Right ascension
Unknown
Apparent Declination
Unknown
Sunlit
N/A
Visualization observer readout
Local Sidereal Time
18:35:11
Azimuth
Unknown
Elevation
Unknown
Doppler factor
Unknown
Orbital elements
Apogee altitude
982.867 km
Perigee altitude
891.061 km
Semi-major axis
7,315.101 km
Eccentricity
0.00628
Inclination
99.8397°
RAAN
42.5519°
Arg. of periapsis
282.1605°
True anomaly
134.23084°
Mean anomaly
133.7139°
Eccentric anomaly
133.97265°
Mean motion
3.46907 °/min
Orbital period
103.77 mins
BSTAR
0.0011461
Loading maneuver chart data...
Computing Atmospheric mass density...

Documentation

Showing up to 5 results
|